Skip Page Navigation
NASA JPL Caltech
NASA Logo - Jet Propulsion Laboratory + View the NASA Portal
+ Center for Near-Earth Object Studies
JPL Home Earth Solar System Stars & Galaxies Technology
JPL Solar System Dynamics
BODIES ORBITS EPHEMERIDES TOOLS PHYSICAL DATA DISCOVERY FAQ SITE MAP
IMPORTANT: The SSD Announcement email list is now available. Major changes are coming in the near future, including possible hostname and/or URL changes. To be notified of such changes, subscribe to this email list.

Please visit this page for more details.


JPL Small-Body Database Browser
Search: [ help ]  
487197 (2014 OV356)
Classification: Main-belt Asteroid          SPK-ID: 2487197
Ephemeris | Orbit Diagram | Orbital Elements | Mission Design | Physical Parameters | Discovery Circumstances | Close-Approach Data ]

[ show orbit diagram ]
Orbital Elements at Epoch 2459000.5 (2020-May-31.0) TDB
Reference: JPL 8 (heliocentric ecliptic J2000)
 Element Value Uncertainty (1-sigma)   Units 
e .07456899042438894 7.9203e-08  
a 3.139294532377229 1.7607e-07 au
q 2.905200508453055 2.1387e-07 au
i 9.878872468516152 1.3671e-05 deg
node 298.9265231978815 4.7857e-05 deg
peri 100.0482421259475 0.00011905 deg
M 298.9520699636554 0.0001054 deg
tp 2459345.020417146222
(2021-May-10.52041715)
0.00060022 TDB
period 2031.638912225211
5.56
0.00017092
4.68e-07
d
yr
n .1771968423294766 1.4908e-08 deg/d
Q 3.373388556301403 1.892e-07 au
  Orbit Determination Parameters
   # obs. used (total)      45  
   data-arc span      4137 days (11.33 yr)  
   first obs. used      2005-10-07  
   last obs. used      2017-02-03  
   planetary ephem.      DE431  
   SB-pert. ephem.      SB431-N16  
   condition code      0  
   norm. resid. RMS      .61008  
   source      ORB  
   producer      Otto Matic  
   solution date      2017-Apr-09 00:19:55  

Additional Information
 Earth MOID = 1.93469 au 
 Jupiter MOID = 1.96054 au 
 T_jup = 3.184 
[ show covariance matrix ]

Ephemeris | Orbit Diagram | Orbital Elements | Mission Design | Physical Parameters | Discovery Circumstances | Close-Approach Data ]

Physical Parameter Table
Parameter Symbol Value Units Sigma Reference Notes
absolute magnitude H 16.8   n/a MPO393770  

487197 (2014 OV356)          Discovered 2014-Jul-28 by Pan-STARRS 1 at Haleakala
Reference: Last Updated: 2017-03-14

[ show close-approach data ]
Ephemeris | Orbit Diagram | Orbital Elements | Mission Design | Physical Parameters | Discovery Circumstances | Close-Approach Data ]
ABOUT SSD CREDITS/AWARDS PRIVACY/COPYRIGHT GLOSSARY LINKS
FirstGov 2020-Jun-05 21:58 UT
(server date/time)  
NASA Home Page
Site Manager:   Ryan S. Park
Webmaster  Alan B. Chamberlin